CW2927 Weather Reports


Display with metric or nautical units.
time (UTC)temp
F
wind
direction
speed
MPH
gust
MPH
rain 1hr
in
rain 24hr
in
rain mn
in
humidity
%
barometer
mb
20211017130704 51 252 3.0 6.0 0.00 1.40 0.02 93 1003.8
20211017130203 51 234 2.0 7.0 0.00 1.40 0.02 93 1003.8
20211017124704 51 250 2.0 8.0 0.00 1.40 0.02 93 1003.8
20211017124204 51 230 2.0 10.0 0.00 1.40 0.02 93 1003.7
20211017122704 51 236 1.0 5.0 0.00 1.40 0.02 93 1003.7
20211017122205 51 221 2.0 10.0 0.00 1.40 0.02 93 1003.7
20211017120704 51 237 3.0 7.0 0.00 1.40 0.02 93 1003.5
20211017120204 50 265 2.0 8.0 0.00 1.40 0.02 93 1003.4
20211017114704 50 256 4.0 9.0 0.00 1.40 0.02 94 1003.3
20211017114204 50 247 2.0 7.0 0.00 1.40 0.02 94 1003.3
20211017112704 50 259 3.0 12.0 0.00 1.40 0.02 94 1003.0
20211017112204 50 244 2.0 12.0 0.00 1.40 0.02 94 1002.9
20211017110704 50 230 1.0 8.0 0.00 1.40 0.02 94 1002.8
20211017110204 50 230 3.0 6.0 0.00 1.40 0.02 94 1002.8
20211017104704 50 259 2.0 9.0 0.00 1.40 0.02 94 1002.6
20211017104204 50 255 3.0 12.0 0.00 1.40 0.02 94 1002.6
20211017102704 51 281 3.0 10.0 0.00 1.40 0.02 95 1002.5
20211017102204 51 245 1.0 8.0 0.00 1.40 0.02 95 1002.4
20211017100704 50 236 2.0 6.0 0.00 1.40 0.02 95 1002.4
20211017100205 50 251 2.0 9.0 0.00 1.40 0.02 95 1002.4
20211017094703 51 263 1.0 7.0 0.00 1.40 0.02 95 1002.2
20211017094204 51 257 1.0 7.0 0.00 1.40 0.02 95 1002.2
20211017092704 51 234 2.0 10.0 0.00 1.40 0.02 95 1002.0
20211017092204 51 238 2.0 12.0 0.00 1.40 0.02 95 1002.1
20211017090704 51 257 3.0 12.0 0.00 1.40 0.02 95 1001.9
20211017090204 51 251 5.0 17.0 0.00 1.41 0.02 96 1001.8
20211017084704 51 231 4.0 10.0 0.00 1.41 0.02 96 1001.8
20211017084204 51 246 5.0 14.0 0.00 1.41 0.02 96 1001.7
20211017082704 52 242 5.0 18.0 0.00 1.41 0.02 96 1001.7
20211017082204 52 245 3.0 12.0 0.00 1.41 0.02 96 1001.7
20211017080703 52 221 5.0 9.0 0.00 1.42 0.02 96 1001.7
20211017080203 52 231 5.0 12.0 0.00 1.42 0.02 96 1001.7
20211017074704 52 227 4.0 9.0 0.00 1.42 0.02 96 1001.5
20211017074204 52 247 2.0 10.0 0.00 1.42 0.02 96 1001.6
20211017072703 52 218 2.0 5.0 0.00 1.42 0.02 97 1001.6
20211017072204 52 240 3.0 13.0 0.00 1.42 0.02 97 1001.7
20211017070704 52 236 3.0 9.0 0.01 1.42 0.02 97 1001.5
20211017070203 52 224 3.0 12.0 0.01 1.42 0.02 97 1001.5
20211017064703 52 222 3.0 12.0 0.01 1.42 0.02 97 1001.2
20211017064204 52 222 4.0 8.0 0.01 1.42 0.02 97 1001.3
20211017062704 53 209 3.0 10.0 0.01 1.42 0.02 97 1001.5
20211017062204 53 227 3.0 10.0 0.01 1.42 0.02 97 1001.3
20211017060704 53 227 6.0 12.0 0.00 1.41 0.02 97 1001.7
20211017060203 53 221 5.0 13.0 0.00 1.41 0.02 97 1001.6
20211017054704 54 231 4.0 12.0 0.00 1.41 0.02 97 1001.5
20211017054204 54 240 7.0 14.0 0.00 1.41 0.02 97 1001.6
20211017052704 55 231 7.0 18.0 0.00 1.41 0.02 97 1001.6
20211017052203 55 227 3.0 9.0 0.00 1.41 0.02 97 1001.2
20211017050704 56 228 2.0 9.0 0.02 1.41 0.02 97 1001.1
20211017050203 56 222 3.0 12.0 0.02 1.41 0.02 97 1001.1
20211017044709 56 257 3.0 12.0 0.02 1.41 0.02 97 1001.1
20211017044209 56 254 2.0 9.0 0.02 1.41 0.02 97 1001.2
20211017042710 57 216 3.0 10.0 0.02 1.41 0.02 97 1000.4
20211017042209 57 206 3.0 12.0 0.02 1.41 0.02 97 1001.2
20211017040709 57 227 3.0 10.0 0.01 1.39 0.00 97 1001.2
20211017040209 57 200 2.0 12.0 0.01 1.39 0.00 97 1000.9
20211017034709 57 202 2.0 10.0 0.01 1.39 1.39 97 1000.6
20211017034209 57 186 5.0 9.0 0.01 1.39 1.39 97 1000.4
20211017032710 57 191 2.0 10.0 0.01 1.39 1.39 97 1000.1
20211017032209 57 180 3.0 12.0 0.01 1.39 1.39 97 999.9
20211017030710 57 174 4.0 12.0 0.02 1.39 1.39 97 1000.6
20211017030209 58 177 1.0 13.0 0.02 1.39 1.39 97 1000.8
20211017024709 58 173 5.0 12.0 0.03 1.39 1.39 97 1000.7
20211017024209 58 202 3.0 13.0 0.04 1.39 1.39 97 1000.5
20211017022709 58 180 3.0 8.0 0.05 1.39 1.39 97 1000.6
20211017022209 58 226 3.0 16.0 0.05 1.39 1.39 97 1000.8
20211017020709 58 177 5.0 13.0 0.03 1.37 1.37 97 1000.6
20211017020209 59 183 5.0 12.0 0.03 1.36 1.36 97 1000.6
20211017014710 59 185 4.0 14.0 0.03 1.35 1.35 97 1000.7
20211017014209 59 200 5.0 15.0 0.02 1.35 1.35 97 1000.7
20211017012709 59 173 5.0 13.0 0.02 1.34 1.34 97 1000.7
20211017012209 59 191 3.0 9.0 0.02 1.34 1.34 97 1000.4
20211017010709 59 163 3.0 12.0 0.02 1.34 1.34 97 1000.2
20211017010209 59 158 4.0 12.0 0.02 1.33 1.33 97 1000.0
20211017004709 59 201 4.0 9.0 0.01 1.32 1.32 97 999.8
20211017004209 60 199 5.0 13.0 0.02 1.32 1.32 97 999.6
20211017002710 60 177 2.0 9.0 0.01 1.31 1.31 97 999.5
20211017002209 60 193 3.0 8.0 0.01 1.31 1.31 97 999.7
20211017000709 60 164 5.0 13.0 0.01 1.31 1.31 97 999.1
20211017000211 60 204 3.0 14.0 0.01 1.31 1.31 97 999.2
20211016234709 61 222 3.0 8.0 0.02 1.31 1.31 97 999.9
20211016234209 61 201 3.0 10.0 0.01 1.31 1.31 97 999.9
20211016232709 61 194 3.0 10.0 0.02 1.31 1.31 97 999.4
20211016232209 61 194 2.0 9.0 0.02 1.31 1.31 97 999.5
20211016230709 61 231 4.0 10.0 0.02 1.31 1.31 97 999.1
20211016230209 61 216 4.0 15.0 0.02 1.31 1.31 97 998.9
20211016224709 63 238 4.0 14.0 0.02 1.30 1.30 97 998.8
20211016224209 63 235 7.0 21.0 0.02 1.30 1.30 97 998.7
20211016222709 64 165 5.0 12.0 0.01 1.28 1.28 98 998.0
20211016222209 64 185 2.0 12.0 0.01 1.28 1.28 98 998.1
20211016220709 64 172 5.0 10.0 0.01 1.28 1.28 98 997.7
20211016220208 64 157 3.0 12.0 0.01 1.28 1.28 97 997.6
20211016214709 64 178 6.0 14.0 0.02 1.28 1.28 97 997.4
20211016214209 64 178 5.0 12.0 0.03 1.28 1.28 97 997.2
20211016212709 64 170 2.0 9.0 0.05 1.28 1.28 97 997.6
20211016212209 64 175 3.0 12.0 0.06 1.28 1.28 97 997.6
20211016210709 64 176 2.0 7.0 0.52 1.28 1.28 97 997.0
20211016210209 64 203 0.0 7.0 0.78 1.28 1.28 97 996.9
20211016204708 65 257 0.0 3.0 0.89 1.25 1.25 97 996.8
20211016204209 65 263 0.0 6.0 0.90 1.24 1.24 97 996.8
20211016202709 65 266 5.0 9.0 0.93 1.24 1.23 97 996.2
20211016202209 65 268 5.0 23.0 0.93 1.24 1.22 96 996.0
20211016200709 67 263 9.0 13.0 0.49 0.77 0.76 97 996.5
20211016200210 67 271 4.0 8.0 0.23 0.51 0.50 97 996.1
20211016194709 67 246 0.0 0.0 0.10 0.38 0.36 97 995.0
20211016194209 67 246 0.0 0.0 0.09 0.36 0.35 97 995.1
20211016192709 67 246 0.0 0.0 0.04 0.31 0.30 96 995.7
20211016192209 67 246 0.0 0.0 0.03 0.31 0.29 96 995.6
20211016190709 67 246 0.0 0.0 0.06 0.28 0.27 96 996.1
20211016190209 67 246 0.0 3.0 0.09 0.28 0.27 96 996.4
20211016184709 67 135 0.0 0.0 0.09 0.28 0.26 96 996.4
20211016184209 67 133 0.0 0.0 0.10 0.28 0.26 96 996.3
20211016182708 67 133 1.0 5.0 0.15 0.28 0.26 96 996.3
20211016182209 67 101 0.0 10.0 0.16 0.28 0.26 95 996.4
20211016180709 67 103 2.0 9.0 0.16 0.22 0.20 95 996.5
20211016180208 67 111 2.0 7.0 0.15 0.20 0.18 95 996.6
20211016174708 67 109 3.0 7.0 0.16 0.19 0.17 94 997.1
20211016174209 67 164 1.0 10.0 0.14 0.17 0.16 94 997.2
20211016172709 68 106 5.0 9.0 0.09 0.13 0.11 93 997.4
20211016172209 68 104 4.0 12.0 0.09 0.12 0.10 92 997.4
20211016170708 69 168 6.0 14.0 0.03 0.06 0.05 89 997.9
20211016170208 70 128 5.0 13.0 0.02 0.05 0.03 88 997.8
20211016164709 71 136 7.0 13.0 0.00 0.03 0.02 86 997.9
20211016164211 71 99 6.0 16.0 0.00 0.04 0.02 86 998.0
20211016162709 70 123 7.0 12.0 0.00 0.05 0.02 87 998.2
20211016162209 70 134 5.0 14.0 0.00 0.05 0.02 88 998.4
20211016160708 70 116 5.0 13.0 0.00 0.05 0.02 89 998.7
20211016160209 70 117 3.0 10.0 0.00 0.05 0.02 89 998.9
20211016154709 69 140 3.0 9.0 0.00 0.05 0.02 90 999.1
20211016154208 69 100 2.0 10.0 0.00 0.05 0.02 90 999.2
20211016152709 69 119 6.0 13.0 0.00 0.05 0.02 90 999.4
20211016152209 69 104 5.0 12.0 0.00 0.05 0.02 91 999.5
20211016150708 69 118 7.0 15.0 0.00 0.05 0.02 91 999.9
20211016150209 69 105 3.0 10.0 0.00 0.05 0.02 91 1000.0
20211016144709 68 114 4.0 14.0 0.00 0.05 0.02 92 1000.3
20211016144209 68 109 1.0 12.0 0.00 0.05 0.02 93 1000.3
20211016142709 68 108 7.0 12.0 0.00 0.05 0.02 94 1000.5
20211016142208 68 113 5.0 10.0 0.00 0.05 0.02 94 1000.6
20211016140709 67 126 5.0 12.0 0.00 0.05 0.02 95 1000.9
20211016140209 67 105 1.0 10.0 0.00 0.05 0.02 95 1000.9
20211016134709 66 103 2.0 10.0 0.00 0.05 0.02 96 1001.3
20211016134208 66 103 2.0 8.0 0.00 0.05 0.02 96 1001.4
20211016132709 66 136 5.0 8.0 0.00 0.05 0.02 96 1001.6
20211016132208 66 155 5.0 9.0 0.00 0.05 0.02 97 1001.6